Time,TemperatureF,DewpointF,PressureIn,WindDirection,WindDirectionDegrees,WindSpeedMPH,WindSpeedGustMPH,Humidity,HourlyPrecipIn,Conditions,Clouds,dailyrainin,SoftwareType,DateUTC
2013-02-20 00:04:00,30.4,25.6,29.67,South,180,0.2,0.2,82,0.00,,,0.00,WUHU216HW,2013-02-20 05:04:00,
2013-02-20 00:19:00,30.6,26.1,29.66,South,180,0.4,0.9,83,0.00,,,0.00,WUHU216HW,2013-02-20 05:19:00,
2013-02-20 00:34:00,30.6,25.7,29.66,South,180,0.6,1.1,82,0.00,,,0.00,WUHU216HW,2013-02-20 05:34:00,
2013-02-20 00:49:00,30.8,26.3,29.65,South,180,0.5,1.3,83,0.00,,,0.00,WUHU216HW,2013-02-20 05:49:00,
2013-02-20 01:04:00,30.6,26.1,29.64,North,0,0.0,0.0,83,0.00,,,0.00,WUHU216HW,2013-02-20 06:04:00,
2013-02-20 01:19:00,30.6,26.1,29.63,North,0,0.0,0.0,83,0.00,,,0.00,WUHU216HW,2013-02-20 06:19:00,
2013-02-20 01:34:00,30.6,26.1,29.62,North,0,0.0,0.0,83,0.00,,,0.00,WUHU216HW,2013-02-20 06:34:00,
2013-02-20 01:49:00,30.8,26.3,29.61,North,0,0.0,0.0,83,0.00,,,0.00,WUHU216HW,2013-02-20 06:49:00,
2013-02-20 02:04:00,30.8,26.6,29.60,North,0,0.0,0.0,84,0.00,,,0.00,WUHU216HW,2013-02-20 07:04:00,
2013-02-20 02:19:00,30.8,26.6,29.59,North,0,0.0,0.0,84,0.00,,,0.00,WUHU216HW,2013-02-20 07:19:00,
2013-02-20 02:34:00,30.8,26.6,29.59,North,0,0.0,0.0,84,0.00,,,0.00,WUHU216HW,2013-02-20 07:34:00,
2013-02-20 02:49:00,30.8,26.8,29.58,North,0,0.0,0.0,85,0.00,,,0.00,WUHU216HW,2013-02-20 07:49:00,
2013-02-20 03:05:00,31.0,27.0,29.57,North,0,0.0,0.0,85,0.00,,,0.00,WUHU216HW,2013-02-20 08:05:00,
2013-02-20 03:20:00,31.0,27.0,29.57,South,180,0.5,1.1,85,0.00,,,0.00,WUHU216HW,2013-02-20 08:20:00,
2013-02-20 03:35:00,31.0,27.3,29.57,South,180,0.4,0.7,86,0.00,,,0.00,WUHU216HW,2013-02-20 08:35:00,
2013-02-20 03:50:00,31.0,27.3,29.57,South,180,0.6,1.3,86,0.00,,,0.00,WUHU216HW,2013-02-20 08:50:00,
2013-02-20 04:05:00,31.3,27.6,29.57,South,180,0.5,1.8,86,0.00,,,0.00,WUHU216HW,2013-02-20 09:05:00,
2013-02-20 04:20:00,31.7,28.6,29.57,South,180,0.5,1.1,88,0.00,,,0.00,WUHU216HW,2013-02-20 09:20:00,
2013-02-20 04:35:00,32.0,28.4,29.59,SSW,200,1.1,2.5,86,0.00,,,0.00,WUHU216HW,2013-02-20 09:35:00,
2013-02-20 04:50:00,31.7,27.7,29.59,WSW,252,1.1,3.4,85,0.00,,,0.00,WUHU216HW,2013-02-20 09:50:00,
2013-02-20 05:05:00,31.3,27.1,29.60,SW,232,1.4,5.4,84,0.00,,,0.00,WUHU216HW,2013-02-20 10:05:00,
2013-02-20 05:20:00,31.0,26.5,29.60,SSE,156,1.0,2.5,83,0.00,,,0.00,WUHU216HW,2013-02-20 10:20:00,
2013-02-20 05:35:00,30.6,25.7,29.61,WSW,246,1.1,3.6,82,0.00,,,0.00,WUHU216HW,2013-02-20 10:35:00,
2013-02-20 05:50:00,30.1,24.9,29.61,SSE,163,1.4,4.7,81,0.00,,,0.00,WUHU216HW,2013-02-20 10:50:00,
2013-02-20 06:05:00,29.5,24.4,29.61,South,179,1.8,4.7,81,0.00,,,0.00,WUHU216HW,2013-02-20 11:05:00,
2013-02-20 06:20:00,29.5,23.8,29.62,WSW,251,2.9,7.2,79,0.00,,,0.00,WUHU216HW,2013-02-20 11:20:00,
2013-02-20 06:35:00,29.2,23.5,29.63,WSW,254,2.3,6.5,79,0.00,,,0.00,WUHU216HW,2013-02-20 11:35:00,
2013-02-20 06:50:00,28.8,23.1,29.63,SSW,213,1.5,6.5,79,0.00,,,0.00,WUHU216HW,2013-02-20 11:50:00,
2013-02-20 07:05:00,28.8,23.1,29.64,WSW,254,1.3,4.9,79,0.00,,,0.00,WUHU216HW,2013-02-20 12:05:00,
2013-02-20 07:20:00,28.8,22.8,29.64,WNW,283,2.0,6.0,78,0.00,,,0.00,WUHU216HW,2013-02-20 12:20:00,
2013-02-20 07:35:00,29.0,22.3,29.63,West,270,2.5,6.0,76,0.00,,,0.00,WUHU216HW,2013-02-20 12:35:00,
2013-02-20 07:50:00,29.2,22.9,29.62,SSW,210,1.3,6.3,77,0.00,,,0.00,WUHU216HW,2013-02-20 12:50:00,
2013-02-20 08:05:00,29.0,22.7,29.63,ENE,72,1.6,4.0,77,0.00,,,0.00,WUHU216HW,2013-02-20 13:05:00,
2013-02-20 08:20:00,29.7,23.3,29.63,WNW,301,2.6,7.4,77,0.02,,,0.02,WUHU216HW,2013-02-20 13:20:00,
2013-02-20 08:35:00,30.8,24.4,29.63,South,188,2.4,6.9,77,0.02,,,0.02,WUHU216HW,2013-02-20 13:35:00,
2013-02-20 08:50:00,32.8,25.7,29.63,SW,234,3.0,8.3,75,0.02,,,0.02,WUHU216HW,2013-02-20 13:50:00,
2013-02-20 09:05:00,34.2,26.0,29.63,East,79,1.9,6.3,72,0.02,,,0.02,WUHU216HW,2013-02-20 14:05:00,
2013-02-20 09:20:00,34.7,25.2,29.64,WNW,291,2.9,7.6,68,0.00,,,0.02,WUHU216HW,2013-02-20 14:20:00,
2013-02-20 09:35:00,34.6,24.3,29.64,West,269,4.0,11.4,66,0.00,,,0.02,WUHU216HW,2013-02-20 14:35:00,
2013-02-20 09:50:00,33.8,23.2,29.64,NW,308,3.4,10.5,65,0.00,,,0.02,WUHU216HW,2013-02-20 14:50:00,
2013-02-20 10:05:00,33.1,23.3,29.64,West,276,2.5,12.5,67,0.00,,,0.02,WUHU216HW,2013-02-20 15:05:00,
2013-02-20 10:20:00,33.8,23.2,29.64,WNW,288,3.2,7.8,65,0.00,,,0.02,WUHU216HW,2013-02-20 15:20:00,
2013-02-20 10:35:00,33.8,22.5,29.64,NW,313,3.3,7.6,63,0.00,,,0.02,WUHU216HW,2013-02-20 15:35:00,
2013-02-20 10:50:00,32.9,21.0,29.65,WNW,299,4.3,9.6,61,0.00,,,0.02,WUHU216HW,2013-02-20 15:50:00,
2013-02-20 11:05:00,33.3,22.4,29.65,WNW,285,2.2,7.6,64,0.00,,,0.02,WUHU216HW,2013-02-20 16:05:00,
2013-02-20 11:20:00,33.3,22.4,29.65,WNW,293,3.5,8.7,64,0.00,,,0.02,WUHU216HW,2013-02-20 16:20:00,
2013-02-20 11:35:00,32.9,22.1,29.65,West,274,3.4,10.1,64,0.00,,,0.02,WUHU216HW,2013-02-20 16:35:00,
2013-02-20 11:50:00,32.4,20.9,29.65,WNW,294,3.0,8.1,62,0.00,,,0.02,WUHU216HW,2013-02-20 16:50:00,
2013-02-20 12:05:00,32.4,21.3,29.65,WNW,293,3.2,8.9,63,0.00,,,0.02,WUHU216HW,2013-02-20 17:05:00,
2013-02-20 12:20:00,32.0,20.5,29.65,West,279,3.6,9.8,62,0.00,,,0.02,WUHU216HW,2013-02-20 17:20:00,
2013-02-20 12:35:00,32.0,20.5,29.65,WNW,290,3.4,9.4,62,0.00,,,0.02,WUHU216HW,2013-02-20 17:35:00,
2013-02-20 12:50:00,32.0,20.5,29.64,WNW,299,3.4,8.3,62,0.00,,,0.02,WUHU216HW,2013-02-20 17:50:00,
2013-02-20 13:05:00,31.9,19.6,29.65,West,273,3.5,10.5,60,0.00,,,0.02,WUHU216HW,2013-02-20 18:05:00,
2013-02-20 13:20:00,32.0,19.8,29.64,WNW,286,2.7,10.5,60,0.00,,,0.02,WUHU216HW,2013-02-20 18:20:00,
2013-02-20 13:35:00,32.4,20.2,29.64,WNW,285,2.7,5.8,60,0.00,,,0.02,WUHU216HW,2013-02-20 18:35:00,
2013-02-20 13:50:00,32.0,19.8,29.64,NW,305,2.4,6.7,60,0.00,,,0.02,WUHU216HW,2013-02-20 18:50:00,
2013-02-20 14:05:00,31.9,19.6,29.64,West,281,3.0,7.8,60,0.00,,,0.02,WUHU216HW,2013-02-20 19:05:00,
2013-02-20 14:20:00,31.7,19.4,29.64,West,262,2.4,7.4,60,0.00,,,0.02,WUHU216HW,2013-02-20 19:20:00,
2013-02-20 14:35:00,31.7,20.2,29.64,WNW,294,2.2,8.1,62,0.00,,,0.02,WUHU216HW,2013-02-20 19:35:00,
2013-02-20 14:50:00,31.9,20.0,29.64,North,2,1.9,4.5,61,0.00,,,0.02,WUHU216HW,2013-02-20 19:50:00,
2013-02-20 15:05:00,31.1,18.5,29.65,West,272,3.8,12.3,59,0.00,,,0.02,WUHU216HW,2013-02-20 20:05:00,
2013-02-20 15:20:00,30.6,17.1,29.65,West,277,4.5,11.2,57,0.00,,,0.02,WUHU216HW,2013-02-20 20:20:00,
2013-02-20 15:35:00,30.4,17.7,29.66,WNW,284,2.4,5.4,59,0.00,,,0.02,WUHU216HW,2013-02-20 20:35:00,
2013-02-20 15:50:00,30.1,18.2,29.66,WNW,290,2.1,6.9,61,0.00,,,0.02,WUHU216HW,2013-02-20 20:50:00,
2013-02-20 16:05:00,29.9,18.0,29.66,West,270,2.1,6.0,61,0.00,,,0.02,WUHU216HW,2013-02-20 21:05:00,
2013-02-20 16:20:00,29.5,18.1,29.67,ESE,102,1.9,8.3,62,0.00,,,0.02,WUHU216HW,2013-02-20 21:20:00,
2013-02-20 16:35:00,29.3,17.9,29.67,South,173,1.8,4.0,62,0.00,,,0.02,WUHU216HW,2013-02-20 21:35:00,
2013-02-20 16:50:00,29.0,17.6,29.67,ENE,77,1.8,4.0,62,0.00,,,0.02,WUHU216HW,2013-02-20 21:50:00,
2013-02-20 17:05:00,28.4,17.5,29.67,West,281,2.3,6.9,63,0.00,,,0.02,WUHU216HW,2013-02-20 22:05:00,
2013-02-20 17:20:00,28.3,17.3,29.67,SE,141,1.9,4.0,63,0.00,,,0.02,WUHU216HW,2013-02-20 22:20:00,
2013-02-20 17:35:00,27.7,17.5,29.67,ESE,112,1.9,4.7,65,0.00,,,0.02,WUHU216HW,2013-02-20 22:35:00,
2013-02-20 17:50:00,27.5,17.6,29.68,South,174,2.8,6.3,66,0.00,,,0.02,WUHU216HW,2013-02-20 22:50:00,
2013-02-20 18:05:00,27.2,18.0,29.68,SE,145,3.4,8.5,68,0.00,,,0.02,WUHU216HW,2013-02-20 23:05:00,
2013-02-20 18:20:00,27.0,17.8,29.68,WNW,288,4.7,13.9,68,0.00,,,0.02,WUHU216HW,2013-02-20 23:20:00,
2013-02-20 18:35:00,26.8,18.4,29.68,SW,215,2.4,10.5,70,0.00,,,0.02,WUHU216HW,2013-02-20 23:35:00,
2013-02-20 18:50:00,26.6,18.2,29.69,SSE,154,2.2,4.7,70,0.00,,,0.02,WUHU216HW,2013-02-20 23:50:00,
2013-02-20 19:05:00,26.6,17.8,29.70,WSW,258,2.8,7.8,69,0.00,,,0.02,WUHU216HW,2013-02-21 00:05:00,
2013-02-20 19:20:00,26.5,17.6,29.70,East,90,1.8,6.0,69,0.00,,,0.02,WUHU216HW,2013-02-21 00:20:00,
2013-02-20 19:35:00,26.6,17.1,29.70,North,351,2.3,6.5,67,0.00,,,0.02,WUHU216HW,2013-02-21 00:35:00,
2013-02-20 19:50:00,26.6,17.1,29.70,NNW,344,2.0,7.6,67,0.00,,,0.02,WUHU216HW,2013-02-21 00:50:00,
2013-02-20 20:05:00,26.5,16.9,29.71,West,262,3.5,7.4,67,0.00,,,0.02,WUHU216HW,2013-02-21 01:05:00,
2013-02-20 20:20:00,26.5,16.6,29.72,WNW,286,4.2,10.1,66,0.00,,,0.02,WUHU216HW,2013-02-21 01:20:00,
2013-02-20 20:35:00,26.5,16.6,29.73,SSW,200,2.4,6.0,66,0.00,,,0.02,WUHU216HW,2013-02-21 01:35:00,
2013-02-20 20:50:00,26.5,16.9,29.74,West,270,1.2,3.1,67,0.00,,,0.02,WUHU216HW,2013-02-21 01:50:00,
2013-02-20 21:05:00,26.3,16.4,29.74,SSE,147,1.5,4.0,66,0.00,,,0.02,WUHU216HW,2013-02-21 02:05:00,
2013-02-20 21:20:00,26.3,16.4,29.75,ESE,123,1.3,4.9,66,0.00,,,0.02,WUHU216HW,2013-02-21 02:20:00,
2013-02-20 21:35:00,26.3,16.7,29.75,NNE,30,1.5,4.0,67,0.00,,,0.02,WUHU216HW,2013-02-21 02:35:00,
2013-02-20 21:50:00,26.3,16.4,29.75,South,188,1.6,4.0,66,0.00,,,0.02,WUHU216HW,2013-02-21 02:50:00,
2013-02-20 22:05:00,26.3,16.7,29.75,WNW,292,1.7,7.4,67,0.00,,,0.02,WUHU216HW,2013-02-21 03:05:00,
2013-02-20 22:20:00,26.1,16.6,29.75,WSW,242,3.2,7.8,67,0.00,,,0.02,WUHU216HW,2013-02-21 03:20:00,
2013-02-20 22:35:00,26.1,16.6,29.75,West,269,2.6,6.9,67,0.00,,,0.02,WUHU216HW,2013-02-21 03:35:00,
2013-02-20 22:50:00,25.9,16.4,29.75,WSW,242,3.0,16.1,67,0.00,,,0.02,WUHU216HW,2013-02-21 03:50:00,
2013-02-20 23:05:00,25.7,15.8,29.75,NNW,340,2.5,7.6,66,0.00,,,0.02,WUHU216HW,2013-02-21 04:05:00,
2013-02-20 23:20:00,25.7,15.8,29.75,South,176,2.7,9.6,66,0.00,,,0.02,WUHU216HW,2013-02-21 04:20:00,
2013-02-20 23:35:00,25.6,15.7,29.76,South,175,2.0,6.9,66,0.00,,,0.02,WUHU216HW,2013-02-21 04:35:00,
2013-02-20 23:50:00,25.6,16.0,29.75,South,171,1.6,5.8,67,0.00,,,0.02,WUHU216HW,2013-02-21 04:50:00,